• In India
  • List of Countries
  • For 7 days
  • Water Temperature
  • Satellite Maps
  • Weather Map
  • Weather Widgets
  • user-avatar
    Login

    Hourly Weather Wlora

    Today, 19 November, Monday

    Time Temperature Precipitation Wind Pressure Humidity
    00:00 +10°C° 0 mm 3 mps 757 mmHg 82%
    01:00 +10°C° 0 mm 3 mps 757 mmHg 81%
    02:00 +10°C° 0 mm 3 mps 757 mmHg 81%
    03:00 +9°C° 0 mm 2 mps 757 mmHg 81%
    04:00 +9°C° 0 mm 2 mps 757 mmHg 81%
    05:00 +10°C° 0 mm 2 mps 757 mmHg 81%
    06:00 +11°C° 0 mm 1 mps 758 mmHg 81%
    07:00 +11°C° 0 mm 1 mps 758 mmHg 81%
    08:00 +13°C° 0 mm 2 mps 758 mmHg 75%
    09:00 +14°C° 0 mm 2 mps 758 mmHg 70%
    10:00 +16°C° 0 mm 3 mps 759 mmHg 64%
    11:00 +15°C° 0 mm 4 mps 759 mmHg 62%
    12:00 +16°C° 0 mm 5 mps 758 mmHg 60%
    13:00 +17°C° 0 mm 6 mps 758 mmHg 57%
    14:00 +16°C° 0.2 mm 7 mps 758 mmHg 63%
    15:00 +16°C° 0.2 mm 8 mps 758 mmHg 68%
    16:00 +15°C° 0.2 mm 9 mps 758 mmHg 73%
    17:00 +15°C° 0.5 mm 9 mps 758 mmHg 76%
    18:00 +14°C° 0.5 mm 10 mps 758 mmHg 79%
    19:00 +13°C° 0.5 mm 10 mps 758 mmHg 82%
    20:00 +13°C° 0.9 mm 11 mps 758 mmHg 82%
    21:00 +13°C° 0.9 mm 11 mps 758 mmHg 82%
    22:00 +13°C° 0.9 mm 11 mps 758 mmHg 82%
    23:00 +13°C° 1.6 mm 11 mps 758 mmHg 83%

    Tomorrow, 20 November, Tuesday

    Time Temperature Precipitation Wind Pressure Humidity
    00:00 +13°C° 1.6 mm 11 mps 758 mmHg 84%
    01:00 +13°C° 1.6 mm 11 mps 758 mmHg 85%
    02:00 +13°C° 3.1 mm 11 mps 758 mmHg 86%
    03:00 +13°C° 3.1 mm 12 mps 758 mmHg 86%
    04:00 +14°C° 3.1 mm 12 mps 757 mmHg 87%
    05:00 +14°C° 3.2 mm 12 mps 757 mmHg 87%
    06:00 +14°C° 3.2 mm 12 mps 757 mmHg 87%
    07:00 +14°C° 3.2 mm 12 mps 757 mmHg 87%
    08:00 +15°C° 2 mm 12 mps 758 mmHg 87%
    09:00 +15°C° 2 mm 12 mps 758 mmHg 87%
    10:00 +15°C° 2 mm 12 mps 758 mmHg 87%
    11:00 +15°C° 1.8 mm 12 mps 758 mmHg 87%
    12:00 +15°C° 1.8 mm 12 mps 757 mmHg 88%
    13:00 +16°C° 1.8 mm 11 mps 757 mmHg 88%
    14:00 +16°C° 1.4 mm 11 mps 757 mmHg 88%
    15:00 +16°C° 1.4 mm 10 mps 757 mmHg 87%
    16:00 +16°C° 1.4 mm 10 mps 757 mmHg 86%
    17:00 +16°C° 1 mm 10 mps 757 mmHg 86%
    18:00 +16°C° 1 mm 9 mps 757 mmHg 87%
    19:00 +16°C° 1 mm 9 mps 757 mmHg 87%
    20:00 +16°C° 0.8 mm 9 mps 757 mmHg 86%
    21:00 +16°C° 0.8 mm 9 mps 757 mmHg 86%
    22:00 +15°C° 0.8 mm 9 mps 757 mmHg 85%
    23:00 +15°C° 2.2 mm 8 mps 756 mmHg 87%

    Day after tomorrow, 21 November, Wednesday

    Time Temperature Precipitation Wind Pressure Humidity
    00:00 +15°C° 2.2 mm 7 mps 756 mmHg 89%
    01:00 +15°C° 2.2 mm 7 mps 755 mmHg 91%
    02:00 +15°C° 1.1 mm 6 mps 755 mmHg 91%
    03:00 +15°C° 1.1 mm 6 mps 755 mmHg 90%
    04:00 +15°C° 1.1 mm 5 mps 755 mmHg 90%
    05:00 +15°C° 1.2 mm 6 mps 756 mmHg 90%
    06:00 +15°C° 1.2 mm 6 mps 756 mmHg 90%
    07:00 +14°C° 1.2 mm 6 mps 756 mmHg 91%
    08:00 +15°C° 1.4 mm 7 mps 757 mmHg 90%
    09:00 +15°C° 1.4 mm 7 mps 757 mmHg 90%
    10:00 +15°C° 1.4 mm 7 mps 758 mmHg 90%
    11:00 +15°C° 1.7 mm 7 mps 758 mmHg 91%
    12:00 +15°C° 1.7 mm 6 mps 758 mmHg 91%
    13:00 +15°C° 1.7 mm 6 mps 758 mmHg 92%
    14:00 +15°C° 1.2 mm 6 mps 758 mmHg 92%
    15:00 +15°C° 1.2 mm 6 mps 759 mmHg 92%
    16:00 +15°C° 1.2 mm 6 mps 759 mmHg 93%
    17:00 +15°C° 0.6 mm 6 mps 760 mmHg 92%
    18:00 +15°C° 0.6 mm 6 mps 760 mmHg 92%
    19:00 +15°C° 0.6 mm 6 mps 760 mmHg 92%
    20:00 +14°C° 0.4 mm 6 mps 761 mmHg 91%
    21:00 +14°C° 0.4 mm 6 mps 761 mmHg 91%
    22:00 +14°C° 0.4 mm 5 mps 761 mmHg 90%
    23:00 +14°C° 0.3 mm 5 mps 762 mmHg 90%

    22 November, Thursday

    Time Temperature Precipitation Wind Pressure Humidity
    00:00 +14°C° 0.3 mm 5 mps 762 mmHg 89%
    01:00 +13°C° 0.3 mm 5 mps 762 mmHg 89%
    02:00 +13°C° 0.2 mm 4 mps 762 mmHg 88%
    03:00 +13°C° 0.2 mm 4 mps 762 mmHg 88%
    04:00 +13°C° 0.2 mm 4 mps 762 mmHg 87%
    05:00 +13°C° 0.1 mm 4 mps 762 mmHg 86%
    06:00 +13°C° 0.1 mm 4 mps 763 mmHg 85%
    07:00 +13°C° 0.1 mm 4 mps 763 mmHg 85%
    08:00 +14°C° 0.1 mm 4 mps 763 mmHg 80%
    09:00 +16°C° 0.1 mm 3 mps 764 mmHg 75%
    10:00 +18°C° 0.1 mm 3 mps 764 mmHg 71%
    11:00 +18°C° 0 mm 4 mps 764 mmHg 70%
    12:00 +19°C° 0 mm 4 mps 764 mmHg 70%
    13:00 +19°C° 0 mm 4 mps 763 mmHg 69%
    14:00 +18°C° 0 mm 4 mps 764 mmHg 72%
    15:00 +18°C° 0 mm 4 mps 764 mmHg 75%
    16:00 +17°C° 0 mm 4 mps 764 mmHg 78%
    17:00 +15°C° 0.1 mm 4 mps 764 mmHg 81%
    18:00 +14°C° 0.1 mm 4 mps 764 mmHg 83%
    19:00 +14°C° 0.1 mm 4 mps 765 mmHg 85%
    20:00 +13°C° 0.2 mm 3 mps 765 mmHg 84%
    21:00 +13°C° 0.2 mm 3 mps 765 mmHg 83%
    22:00 +13°C° 0.2 mm 3 mps 766 mmHg 82%
    23:00 +13°C° 0 mm 3 mps 766 mmHg 80%

    23 November, Friday

    Time Temperature Precipitation Wind Pressure Humidity
    00:00 +12°C° 0 mm 3 mps 766 mmHg 78%
    01:00 +12°C° 0 mm 3 mps 766 mmHg 76%
    02:00 +12°C° 0 mm 3 mps 766 mmHg 74%
    03:00 +12°C° 0 mm 4 mps 766 mmHg 73%
    04:00 +12°C° 0 mm 4 mps 766 mmHg 72%
    05:00 +12°C° 0 mm 4 mps 767 mmHg 72%
    06:00 +12°C° 0 mm 4 mps 767 mmHg 72%
    07:00 +11°C° 0 mm 4 mps 767 mmHg 72%
    08:00 +13°C° 0 mm 4 mps 768 mmHg 67%
    09:00 +15°C° 0 mm 4 mps 768 mmHg 62%
    10:00 +17°C° 0 mm 4 mps 768 mmHg 57%
    11:00 +18°C° 0 mm 4 mps 768 mmHg 55%
    12:00 +18°C° 0 mm 4 mps 768 mmHg 53%
    13:00 +19°C° 0 mm 5 mps 768 mmHg 51%
    14:00 +17°C° 0 mm 5 mps 768 mmHg 56%
    15:00 +16°C° 0 mm 5 mps 768 mmHg 61%
    16:00 +16°C° 0 mm 5 mps 768 mmHg 66%
    17:00 +15°C° 0 mm 5 mps 768 mmHg 69%
    18:00 +14°C° 0 mm 5 mps 769 mmHg 71%
    19:00 +13°C° 0 mm 5 mps 769 mmHg 74%
    20:00 +13°C° 0 mm 5 mps 769 mmHg 74%
    21:00 +12°C° 0 mm 5 mps 769 mmHg 74%
    22:00 +12°C° 0 mm 4 mps 770 mmHg 75%
    23:00 +12°C° 0 mm 4 mps 770 mmHg 75%

    24 November, Saturday

    Time Temperature Precipitation Wind Pressure Humidity
    00:00 +12°C° 0 mm 4 mps 769 mmHg 75%
    01:00 +11°C° 0 mm 4 mps 769 mmHg 75%
    02:00 +11°C° 0 mm 4 mps 769 mmHg 75%
    03:00 +11°C° 0 mm 4 mps 769 mmHg 75%
    04:00 +11°C° 0 mm 3 mps 769 mmHg 75%
    05:00 +10°C° 0 mm 3 mps 769 mmHg 75%
    06:00 +10°C° 0 mm 3 mps 770 mmHg 75%
    07:00 +10°C° 0 mm 3 mps 770 mmHg 75%
    08:00 +12°C° 0 mm 3 mps 770 mmHg 69%
    09:00 +14°C° 0 mm 2 mps 770 mmHg 63%
    10:00 +16°C° 0 mm 2 mps 770 mmHg 57%
    11:00 +17°C° 0 mm 2 mps 770 mmHg 55%
    12:00 +17°C° 0 mm 2 mps 769 mmHg 53%
    13:00 +18°C° 0 mm 2 mps 769 mmHg 50%
    14:00 +17°C° 0 mm 2 mps 769 mmHg 54%
    15:00 +16°C° 0 mm 2 mps 769 mmHg 59%
    16:00 +16°C° 0 mm 2 mps 769 mmHg 63%
    17:00 +15°C° 0 mm 2 mps 769 mmHg 65%
    18:00 +14°C° 0 mm 2 mps 769 mmHg 66%
    19:00 +14°C° 0 mm 2 mps 769 mmHg 68%
    20:00 +13°C° 0 mm 1 mps 769 mmHg 69%
    21:00 +13°C° 0 mm 1 mps 769 mmHg 70%
    22:00 +13°C° 0 mm 1 mps 769 mmHg 71%
    23:00 +12°C° 0 mm 1 mps 769 mmHg 72%
    Show more